Overview Statistics Trail Chart Weather Telemetry Raw packets
 

This is the latest recevied weather packets stored in our database for station/object KB9HUO. If no packets are shown the sender has not sent any weather packets the latest 10 day(s).

<< 86 87 88 89 90 91 92 >>
Time Temp. Humidity Pressure Rain* Wind** Luminosity Snow
1788024435 30° C 52% 1022.8 hPa 0 mm - 457 W/m² -
1788024134 30° C 56% 1022.9 hPa 0 mm - 697 W/m² -
1788023830 29.44° C 58% 1022.8 hPa 0 mm - 711 W/m² -
1788023525 29.44° C 54% 1022.8 hPa 0 mm - 734 W/m² -
1788023221 28.89° C 61% 1022.9 hPa 0 mm - 740 W/m² -
1788022921 28.33° C 58% 1022.9 hPa 0 mm - 705 W/m² -
1788022617 27.78° C 64% 1022.9 hPa 0 mm - 720 W/m² -
1788022312 28.33° C 61% 1022.9 hPa 0 mm - 235 W/m² -
1788022011 28.89° C 59% 1022.9 hPa 0 mm - 132 W/m² -
1788021707 28.89° C 60% 1023 hPa 0 mm - 701 W/m² -
1788021404 28.89° C 56% 1023.1 hPa 0 mm - 154 W/m² -
1788021099 28.89° C 63% 1023 hPa 0 mm - 608 W/m² -
1788020794 28.33° C 61% 1023.1 hPa 0 mm - 669 W/m² -
1788020489 28.33° C 63% 1022.9 hPa 0 mm - 678 W/m² -
1788020185 28.33° C 62% 1023.1 hPa 0 mm - 671 W/m² -
1788019881 28.89° C 62% 1023.2 hPa 0 mm - 663 W/m² -
1788019581 28.33° C 62% 1023.4 hPa 0 mm - 634 W/m² -
1788019275 27.78° C 63% 1023.2 hPa 0 mm - 654 W/m² -
1788018973 28.33° C 64% 1023.4 hPa 0 mm - 640 W/m² -
1788018669 27.78° C 64% 1023.4 hPa 0 mm - 635 W/m² -
1788018367 26.67° C 70% 1023.4 hPa 0 mm - 623 W/m² -
1788018063 27.22° C 66% 1023.2 hPa 0 mm - 612 W/m² -
1788017758 27.22° C 67% 1023.3 hPa 0 mm - 598 W/m² -
1788017455 26.67° C 70% 1023.2 hPa 0 mm - 584 W/m² -
1788017151 26.11° C 73% 1023.2 hPa 0 mm - 581 W/m² -

* Rain latest hour (hover to see other rain measurements)
** Current wind speed in m/s (hover to see current wind gust speed)